LFBELFBP

Guest
Details From LFBE - Bergerac Roumaniere
To LFBP - Pau Pyrenees
Flight Number -
Tags Decoded
Created
Modified
Stats Distance 95 nm / 177 km
Max Altitude 0 ft / 0 m
Waypoints 2
Social Downloads 1
Likes 0
Share VATSIM

Download

Looking for another format? Having issues loading an existing format? Contact us
Advertisement - Login to hide

Notes

Decoded

Route

LFBE LFBP

ID Type Via Altitude Latitude Longitude Leg Dist Tot Dist Heading (true) Name
O LFBE APT - 0 ft / 0 m 44.82527˚ 0.50495˚ - 0 nm - -
O LFBP APT - 0 ft / 0 m 43.38766˚ -0.43326˚ 95 nm 95 nm 205° / 205° -

Altitude Profile

Advertisement - Login to hide

LFBE

Details ICAO LFBE (EGC)
Name Bergerac Roumaniere
Region France
Timezone Europe/Paris (UTC+1.0)
Stats Elevation 171 ft / 52 m (AMSL)
Location 44.824525° 0.518776°
Runways 1
Magnetic Variation 0.291° E

METAR

LFBE 181430Z AUTO 31006KT 290V360 9999 BKN013 OVC018 12/11 Q1023 BECMG BKN020

Decode

TAF

TAF LFBE 181100Z 1812/1912 25010KT 4500 -DZ OVC006 TEMPO 1812/1814 2500 RADZ OVC002 BECMG 1814/1816 01010KT 9999 BKN020 BECMG 1818/1821 VRB03KT CAVOK PROB40 TEMPO 1900/1906 3000 BR NSC BECMG 1910/1912 34005KT

Decode

Departure Runways

ID Width Length Bearing (true) Bearing (mag) Surface Threshold Offset Overrun Length
10 148 ft / 45 m 7,178 ft / 2,188 m 94.33° 94.04° Asphalt 687 ft / 209 m 0 ft / 0 m
28 148 ft / 45 m 7,178 ft / 2,188 m 274.35° 274.06° Asphalt 804 ft / 245 m 0 ft / 0 m

LFBP

Details ICAO LFBP (PUF)
Name Pau Pyrenees
Region France
Timezone Europe/Paris (UTC+1.0)
Stats Elevation 616 ft / 188 m (AMSL)
Location 43.381078° -0.420752°
Runways 1
Magnetic Variation 0.095° E

METAR

LFBP 181430Z AUTO 26012KT 220V280 4000 -DZ BR OVC006/// ///TCU 09/08 Q1026 TEMPO 30015G25KT 2500 DZRA BKN003

Decode

TAF

TAF AMD LFBP 181318Z 1813/1912 25010KT 8000 -RA BKN008 BKN017 OVC030 TEMPO 1813/1820 30015G25KT 2500 DZRA BKN003 BECMG 1818/1820 34005KT 9999 NSW PROB40 1900/1906 2000 BCFG BKN004 PROB30 TEMPO 1901/1910 0500 FG VV///

Decode

Destination Runways

ID Width Length Bearing (true) Bearing (mag) Surface Threshold Offset Overrun Length
13 148 ft / 45 m 8,191 ft / 2,497 m 125.89° 125.79° Asphalt 0 ft / 0 m 0 ft / 0 m
31 148 ft / 45 m 8,191 ft / 2,497 m 305.90° 305.80° Asphalt 0 ft / 0 m 0 ft / 0 m

Approach Navaids

Runway Type Ident Frequency Range Bearing (true) Bearing (mag) Slope Elevation
31 Localiser PU 110.10 MHz 18 nm / 33 km 305.89° 305.79° - 576 ft / 176 m (AMSL)
31 Glidescope PU 110.10 MHz 10 nm / 19 km 305.90° 305.80° 3.00° 676 ft / 206 m (AMSL)
31 DME PU 110.10 MHz 18 nm / 33 km - - - 608 ft / 185 m (AMSL)

Popular Alternatives